Time,TemperatureF,DewpointF,PressureIn,WindDirection,WindDirectionDegrees,WindSpeedMPH,WindSpeedGustMPH,Humidity,HourlyPrecipIn,Conditions,Clouds,dailyrainin,SoftwareType,DateUTC
2013-10-27 00:13:00,55.0,55.0,29.85,South,180,0.0,1.0,99,0.07,,,3.24,,2013-10-27 05:13:00,
2013-10-27 00:23:00,55.0,55.0,29.86,South,180,0.0,1.0,99,0.05,,,3.24,,2013-10-27 05:23:00,
2013-10-27 00:43:00,55.0,55.0,29.86,SE,135,0.0,1.0,99,0.04,,,3.24,,2013-10-27 05:43:00,
2013-10-27 00:52:00,55.0,55.0,29.86,SW,225,0.0,1.0,99,0.02,,,3.24,,2013-10-27 05:52:00,
2013-10-27 01:13:00,55.0,55.0,29.85,South,180,0.0,1.0,99,0.01,,,3.24,,2013-10-27 06:13:00,
2013-10-27 01:22:00,55.0,55.0,29.84,NW,315,0.0,0.0,99,0.00,,,3.24,,2013-10-27 06:22:00,
2013-10-27 01:32:00,55.0,55.0,29.84,NW,315,0.0,0.0,99,0.00,,,3.24,,2013-10-27 06:32:00,
2013-10-27 01:42:00,55.0,55.0,29.84,NW,315,0.0,0.0,99,0.00,,,3.24,,2013-10-27 06:42:00,
2013-10-27 01:53:00,56.0,56.0,29.84,NW,315,0.0,0.0,99,0.00,,,3.24,,2013-10-27 06:53:00,
2013-10-27 02:12:00,56.0,56.0,29.84,SE,135,0.0,1.0,99,0.00,,,3.24,,2013-10-27 07:12:00,
2013-10-27 02:22:00,56.0,56.0,29.85,South,180,0.0,3.0,99,0.00,,,3.24,,2013-10-27 07:22:00,
2013-10-27 02:32:00,56.0,56.0,29.85,South,180,0.0,3.0,99,0.00,,,3.24,,2013-10-27 07:32:00,
2013-10-27 02:42:00,56.0,56.0,29.85,South,180,0.0,3.0,99,0.00,,,3.24,,2013-10-27 07:42:00,
2013-10-27 02:52:00,56.0,56.0,29.83,NW,315,0.0,0.0,99,0.00,,,3.24,,2013-10-27 07:52:00,
2013-10-27 03:11:00,56.0,56.0,29.82,NW,315,0.0,0.0,99,0.00,,,3.24,,2013-10-27 08:11:00,
2013-10-27 03:22:00,56.0,56.0,29.81,West,270,0.0,0.0,99,0.00,,,3.24,,2013-10-27 08:22:00,
2013-10-27 03:42:00,57.0,57.0,29.81,South,180,0.0,0.0,99,0.00,,,3.24,,2013-10-27 08:42:00,
2013-10-27 03:52:00,57.0,57.0,29.81,SE,135,0.0,2.0,99,0.00,,,3.24,,2013-10-27 08:52:00,
2013-10-27 04:12:00,57.0,57.0,29.81,SE,135,0.0,2.0,99,0.00,,,3.24,,2013-10-27 09:12:00,
2013-10-27 04:21:00,57.0,57.0,29.81,SE,135,0.0,2.0,99,0.00,,,3.24,,2013-10-27 09:21:00,
2013-10-27 04:33:00,57.0,57.0,29.81,SE,135,0.0,2.0,99,0.00,,,3.24,,2013-10-27 09:33:00,
2013-10-27 04:43:00,57.0,57.0,29.81,SE,135,0.0,2.0,99,0.00,,,3.24,,2013-10-27 09:43:00,
2013-10-27 05:12:00,56.0,56.0,29.80,SE,135,0.0,3.0,99,0.00,,,3.24,,2013-10-27 10:12:00,
2013-10-27 05:23:00,56.0,56.0,29.80,SE,135,0.0,3.0,99,0.00,,,3.24,,2013-10-27 10:23:00,
2013-10-27 05:42:00,56.0,56.0,29.81,SSE,158,2.0,5.0,99,0.00,,,3.24,,2013-10-27 10:42:00,
2013-10-27 05:53:00,55.0,55.0,29.81,SE,135,3.0,5.0,99,0.00,,,3.24,,2013-10-27 10:53:00,
2013-10-27 06:12:00,55.0,55.0,29.82,SE,135,4.0,6.0,99,0.00,,,3.24,,2013-10-27 11:12:00,
2013-10-27 06:22:00,55.0,55.0,29.82,SE,135,2.0,6.0,99,0.00,,,3.24,,2013-10-27 11:22:00,
2013-10-27 06:42:00,56.0,56.0,29.82,South,180,0.0,4.0,99,0.00,,,3.24,,2013-10-27 11:42:00,
2013-10-27 06:52:00,56.0,56.0,29.82,SSE,158,0.0,1.0,99,0.00,,,3.24,,2013-10-27 11:52:00,
2013-10-27 07:12:00,56.0,56.0,29.83,South,180,0.0,4.0,99,0.00,,,3.24,,2013-10-27 12:12:00,
2013-10-27 07:22:00,56.0,56.0,29.83,South,180,0.0,1.0,99,0.00,,,3.24,,2013-10-27 12:22:00,
2013-10-27 07:42:00,56.0,56.0,29.84,SE,135,0.0,1.0,99,0.00,,,3.24,,2013-10-27 12:42:00,
2013-10-27 07:52:00,56.0,56.0,29.84,SE,135,0.0,1.0,99,0.00,,,3.22,,2013-10-27 12:52:00,
2013-10-27 08:12:00,56.0,56.0,29.84,SE,135,0.0,1.0,99,0.00,,,3.21,,2013-10-27 13:12:00,
2013-10-27 08:21:00,56.0,56.0,29.84,SE,135,0.0,0.0,99,0.00,,,3.21,,2013-10-27 13:21:00,
2013-10-27 08:42:00,57.0,57.0,29.84,SE,135,0.0,1.0,99,0.00,,,3.21,,2013-10-27 13:42:00,
2013-10-27 08:52:00,57.0,57.0,29.84,SE,135,0.0,1.0,99,0.00,,,3.21,,2013-10-27 13:52:00,
2013-10-27 09:11:00,57.0,57.0,29.84,South,180,0.0,0.0,99,0.00,,,3.21,,2013-10-27 14:11:00,
2013-10-27 09:22:00,58.0,58.0,29.85,NW,315,0.0,0.0,99,0.00,,,3.21,,2013-10-27 14:22:00,
2013-10-27 09:32:00,58.0,58.0,29.85,NW,315,0.0,0.0,99,0.00,,,3.21,,2013-10-27 14:32:00,
2013-10-27 09:42:00,58.0,58.0,29.85,NW,315,0.0,0.0,99,0.00,,,3.21,,2013-10-27 14:42:00,
2013-10-27 09:52:00,58.0,58.0,29.85,NW,315,0.0,0.0,99,0.00,,,3.21,,2013-10-27 14:52:00,
2013-10-27 10:12:00,58.0,58.0,29.86,East,90,0.0,0.0,99,0.00,,,3.21,,2013-10-27 15:12:00,
2013-10-27 10:22:00,58.0,58.0,29.86,SE,135,0.0,1.0,99,0.00,,,3.21,,2013-10-27 15:22:00,
2013-10-27 10:44:00,59.0,59.0,29.86,South,180,0.0,2.0,99,0.00,,,3.21,,2013-10-27 15:44:00,
2013-10-27 10:54:00,59.0,59.0,29.87,SE,135,1.0,5.0,99,0.00,,,3.21,,2013-10-27 15:54:00,
2013-10-27 11:04:00,59.0,59.0,29.87,SE,135,1.0,5.0,99,0.00,,,3.21,,2013-10-27 16:04:00,
2013-10-27 11:13:00,59.0,59.0,29.87,SE,135,1.0,5.0,99,0.00,,,3.21,,2013-10-27 16:13:00,
2013-10-27 11:24:00,61.0,61.0,29.87,SE,135,0.0,4.0,99,0.00,,,3.21,,2013-10-27 16:24:00,
2013-10-27 11:43:00,63.0,63.0,29.87,South,180,0.0,2.0,100,0.00,,,3.21,,2013-10-27 16:43:00,
2013-10-27 11:53:00,65.0,62.0,29.87,SSE,158,0.0,5.0,89,0.00,,,3.21,,2013-10-27 16:53:00,
2013-10-27 12:13:00,66.0,59.0,29.87,SE,135,0.0,4.0,79,0.01,,,3.22,,2013-10-27 17:13:00,
2013-10-27 12:22:00,66.0,59.0,29.87,SE,135,0.0,4.0,79,0.01,,,3.22,,2013-10-27 17:22:00,
2013-10-27 12:34:00,66.0,59.0,29.87,SE,135,0.0,4.0,79,0.01,,,3.22,,2013-10-27 17:34:00,
2013-10-27 12:43:00,66.0,59.0,29.87,SE,135,0.0,4.0,79,0.01,,,3.22,,2013-10-27 17:43:00,
2013-10-27 12:53:00,70.0,57.0,29.85,SE,135,0.0,5.0,64,0.01,,,3.18,,2013-10-27 17:53:00,
2013-10-27 13:12:00,67.0,55.0,29.84,SE,135,1.0,7.0,65,0.00,,,3.13,,2013-10-27 18:12:00,
2013-10-27 13:22:00,70.0,56.0,29.84,South,180,0.0,4.0,61,0.00,,,3.07,,2013-10-27 18:22:00,
2013-10-27 13:43:00,72.0,56.0,29.83,SW,225,1.0,3.0,58,0.00,,,3.04,,2013-10-27 18:43:00,
2013-10-27 15:12:00,72.0,50.0,29.80,NE,45,0.0,8.0,46,0.00,,,2.81,,2013-10-27 20:12:00,
2013-10-27 15:22:00,73.0,50.0,29.79,South,180,3.0,8.0,44,0.00,,,2.78,,2013-10-27 20:22:00,
2013-10-27 16:54:00,71.0,49.0,29.78,SE,135,0.0,7.0,46,0.00,,,2.42,,2013-10-27 21:54:00,
2013-10-27 17:24:00,69.0,51.0,29.77,South,180,0.0,4.0,53,0.00,,,2.30,,2013-10-27 22:24:00,
2013-10-27 17:43:00,68.0,52.0,29.78,SE,135,0.0,1.0,56,0.00,,,2.17,,2013-10-27 22:43:00,
2013-10-27 17:54:00,68.0,52.0,29.78,SE,135,0.0,1.0,56,0.00,,,2.17,,2013-10-27 22:54:00,
2013-10-27 18:03:00,68.0,52.0,29.78,SE,135,0.0,1.0,56,0.00,,,2.17,,2013-10-27 23:03:00,
2013-10-27 18:12:00,68.0,52.0,29.78,SE,135,0.0,1.0,56,0.00,,,2.17,,2013-10-27 23:12:00,
2013-10-27 18:52:00,66.0,53.0,29.77,SE,135,0.0,6.0,62,0.00,,,1.22,,2013-10-27 23:52:00,
2013-10-27 19:02:00,66.0,53.0,29.77,SE,135,0.0,6.0,62,0.00,,,1.22,,2013-10-28 00:02:00,
2013-10-27 19:11:00,66.0,53.0,29.77,SE,135,0.0,6.0,62,0.00,,,1.22,,2013-10-28 00:11:00,
2013-10-27 19:22:00,64.0,53.0,29.77,South,180,0.0,1.0,67,0.00,,,0.96,,2013-10-28 00:22:00,
2013-10-27 19:32:00,64.0,53.0,29.77,South,180,0.0,1.0,67,0.00,,,0.96,,2013-10-28 00:32:00,
2013-10-27 19:43:00,64.0,53.0,29.77,South,180,0.0,1.0,67,0.00,,,0.96,,2013-10-28 00:43:00,
2013-10-27 19:52:00,64.0,53.0,29.77,South,180,0.0,1.0,67,0.00,,,0.96,,2013-10-28 00:52:00,
2013-10-27 20:12:00,62.0,53.0,29.78,SE,135,0.0,0.0,73,0.00,,,0.63,,2013-10-28 01:12:00,
2013-10-27 20:21:00,62.0,54.0,29.79,SE,135,0.0,1.0,74,0.00,,,0.60,,2013-10-28 01:21:00,
2013-10-27 20:42:00,59.0,51.0,29.79,NW,315,0.0,0.0,76,0.00,,,0.54,,2013-10-28 01:42:00,
2013-10-27 20:52:00,59.0,51.0,29.79,NW,315,0.0,0.0,76,0.00,,,0.54,,2013-10-28 01:52:00,
2013-10-27 21:12:00,59.0,53.0,29.80,SE,135,0.0,0.0,81,0.00,,,0.45,,2013-10-28 02:12:00,
2013-10-27 21:22:00,59.0,53.0,29.80,NE,45,0.0,0.0,81,0.00,,,0.43,,2013-10-28 02:22:00,
2013-10-27 21:32:00,59.0,53.0,29.80,NE,45,0.0,0.0,81,0.00,,,0.43,,2013-10-28 02:32:00,
2013-10-27 21:42:00,59.0,53.0,29.80,NE,45,0.0,0.0,81,0.00,,,0.43,,2013-10-28 02:42:00,
2013-10-27 21:53:00,60.0,55.0,29.80,South,180,0.0,3.0,85,0.00,,,0.31,,2013-10-28 02:53:00,
2013-10-27 22:11:00,60.0,55.0,29.80,SSE,158,0.0,1.0,85,0.00,,,0.25,,2013-10-28 03:11:00,
2013-10-27 22:22:00,60.0,55.0,29.81,SSE,158,0.0,1.0,85,0.00,,,0.22,,2013-10-28 03:22:00,
2013-10-27 22:44:00,60.0,55.0,29.81,SSE,158,0.0,0.0,85,0.00,,,0.14,,2013-10-28 03:44:00,
2013-10-27 22:54:00,60.0,55.0,29.81,SSE,158,0.0,0.0,85,0.00,,,0.13,,2013-10-28 03:54:00,
2013-10-27 23:13:00,59.0,54.0,29.81,SSE,158,0.0,0.0,84,0.00,,,0.09,,2013-10-28 04:13:00,
2013-10-27 23:23:00,58.0,54.0,29.81,SSE,158,0.0,0.0,85,0.00,,,0.07,,2013-10-28 04:23:00,
2013-10-27 23:43:00,57.0,53.0,29.81,SE,135,0.0,0.0,85,0.00,,,0.04,,2013-10-28 04:43:00,
2013-10-27 23:53:00,56.0,52.0,29.81,SE,135,0.0,0.0,86,0.00,,,0.02,,2013-10-28 04:53:00,